EW4380 Weather Reports


Display with metric or nautical units.
time (UTC)temp
F
wind
direction
speed
MPH
gust
MPH
rain 1hr
in
rain 24hr
in
rain mn
in
humidity
%
barometer
mb
20260510104610 68 171 0.0 2.0 0.00 0.14 0.00 86 1011.3
20260510103053 68 171 1.0 4.0 0.00 0.14 0.00 86 1011.2
20260510101551 68 172 0.0 2.0 0.00 0.14 0.00 86 1011.4
20260510100048 69 172 0.0 1.0 0.00 0.14 0.00 85 1011.4
20260510094546 69 172 0.0 0.0 0.00 0.14 0.00 84 1011.1
20260510093045 69 172 0.0 1.0 0.00 0.14 0.00 84 1011.0
20260510091544 69 172 0.0 0.0 0.00 0.14 0.00 84 1010.9
20260510090044 70 172 0.0 0.0 0.00 0.14 0.00 84 1010.9
20260510084542 70 172 0.0 0.0 0.00 0.14 0.00 84 1010.7
20260510083041 70 172 0.0 0.0 0.00 0.14 0.00 84 1010.6
20260510081542 71 172 0.0 0.0 0.00 0.14 0.00 83 1010.8
20260510080041 71 172 0.0 0.0 0.00 0.14 0.00 82 1010.5
20260510074536 72 172 0.0 1.0 0.00 0.14 0.00 82 1010.5
20260510073033 72 172 0.0 0.0 0.00 0.14 0.00 81 1010.6
20260510071530 73 172 0.0 1.0 0.00 0.14 0.00 80 1010.6
20260510070028 74 172 0.0 3.0 0.00 0.14 0.00 80 1010.7
20260510064528 74 173 0.0 3.0 0.00 0.14 0.00 79 1010.9
20260510063026 74 173 0.0 4.0 0.00 0.14 0.00 79 1010.7
20260510061529 75 173 1.0 5.0 0.00 0.14 0.00 78 1010.8
20260510060041 75 176 0.0 4.0 0.00 0.14 0.00 78 1010.8
20260510054519 76 178 1.0 7.0 0.00 0.14 0.00 78 1010.5
20260510053016 76 185 2.0 7.0 0.00 0.14 0.00 78 1010.3
20260510051514 76 183 4.0 9.0 0.00 0.14 0.00 77 1010.3
20260510050011 77 190 4.0 8.0 0.00 0.14 0.14 77 1010.3
20260510044512 78 180 2.0 7.0 0.00 0.14 0.14 75 1010.3
20260510043011 79 181 3.0 8.0 0.00 0.14 0.14 73 1010.3
20260510041515 79 176 3.0 9.0 0.00 0.14 0.14 72 1010.4
20260510040009 79 130 3.0 10.0 0.00 0.14 0.14 73 1010.3
20260510034509 78 175 1.0 3.0 0.00 0.14 0.14 75 1010.2
20260510033008 79 177 0.0 2.0 0.00 0.14 0.14 75 1009.9
20260510031507 79 177 0.0 2.0 0.00 0.14 0.14 76 1009.8
20260510030007 78 177 0.0 3.0 0.00 0.14 0.14 78 1009.6
20260510024511 79 178 0.0 2.0 0.00 0.14 0.14 77 1009.5
20260510023015 80 178 0.0 2.0 0.00 0.14 0.14 74 1009.2
20260510021506 81 178 1.0 4.0 0.00 0.14 0.14 72 1009.0
20260510020005 81 184 1.0 4.0 0.00 0.14 0.14 72 1008.8
20260510014505 82 188 1.0 3.0 0.00 0.14 0.14 72 1008.5
20260510013010 83 188 0.0 1.0 0.00 0.14 0.14 71 1008.2
20260510011510 84 188 0.0 1.0 0.00 0.14 0.14 68 1007.9
20260510010008 86 188 0.0 3.0 0.00 0.14 0.14 65 1007.6
20260510004501 87 165 0.0 2.0 0.00 0.14 0.14 64 1007.5
20260510003002 88 165 0.0 5.0 0.00 0.14 0.14 63 1007.3
20260510001600 88 165 1.0 3.0 0.00 0.14 0.14 60 1007.4
20260510000100 88 165 0.0 6.0 0.00 0.14 0.14 58 1007.7
20260509234606 89 180 0.0 3.0 0.00 0.14 0.14 57 1007.9
20260509233102 89 180 3.0 5.0 0.00 0.14 0.14 55 1007.8
20260509231602 89 173 2.0 6.0 0.00 0.14 0.14 58 1007.8
20260509230054 89 174 1.0 4.0 0.00 0.14 0.14 58 1007.8
20260509224557 89 178 1.0 6.0 0.00 0.14 0.14 58 1007.7
20260509223052 89 175 1.0 4.0 0.00 0.14 0.14 59 1007.8
20260509221550 90 182 0.0 5.0 0.00 0.14 0.14 60 1007.9
20260509220049 89 175 3.0 7.0 0.00 0.14 0.14 59 1007.8
20260509214547 89 187 2.0 8.0 0.00 0.14 0.14 61 1007.8
20260509213100 88 192 2.0 6.0 0.00 0.14 0.14 61 1007.9
20260509211608 88 217 1.0 4.0 0.00 0.14 0.14 63 1007.9
20260509210042 88 234 1.0 5.0 0.00 0.14 0.14 61 1008.3
20260509204553 87 287 2.0 8.0 0.00 0.14 0.14 62 1008.6
20260509203044 87 231 3.0 9.0 0.00 0.14 0.14 64 1008.8
20260509201536 87 259 1.0 7.0 0.00 0.14 0.14 65 1009.0
20260509200035 87 233 3.0 9.0 0.00 0.14 0.14 66 1009.3
20260509194535 86 317 4.0 10.0 0.00 0.14 0.14 65 1009.7
20260509193033 86 261 5.0 10.0 0.00 0.14 0.14 68 1009.7
20260509191533 86 255 3.0 10.0 0.00 0.14 0.14 69 1009.8
20260509190028 85 245 6.0 10.0 0.00 0.14 0.14 70 1009.9
20260509184527 85 231 1.0 8.0 0.00 0.14 0.14 67 1010.1
20260509183026 85 286 5.0 9.0 0.00 0.14 0.14 71 1010.2
20260509181524 84 219 2.0 8.0 0.00 0.14 0.14 71 1010.4
20260509180023 84 228 1.0 9.0 0.00 0.14 0.14 71 1010.7
20260509174523 83 236 4.0 10.0 0.00 0.14 0.14 70 1010.7
20260509173021 84 264 3.0 10.0 0.00 0.14 0.14 75 1010.9
20260509171518 83 223 3.0 9.0 0.00 0.14 0.14 75 1010.9
20260509170017 82 175 3.0 14.0 0.00 0.14 0.14 75 1010.8
20260509164515 81 252 7.0 11.0 0.00 0.14 0.14 76 1011.1
20260509163013 81 211 3.0 7.0 0.00 0.14 0.14 79 1011.2
20260509161512 80 224 3.0 8.0 0.00 0.14 0.14 80 1011.3
20260509160008 79 229 3.0 8.0 0.00 0.14 0.14 82 1011.5
20260509154507 79 194 1.0 6.0 0.00 0.14 0.14 82 1011.9
20260509153014 78 181 1.0 7.0 0.00 0.14 0.14 84 1011.7
20260509151501 77 195 3.0 6.0 0.00 0.14 0.14 86 1011.9
20260509150058 75 115 1.0 3.0 0.00 0.14 0.14 88 1012.0
20260509144554 73 111 1.0 3.0 0.01 0.14 0.14 89 1011.9
20260509143059 72 106 0.0 4.0 0.03 0.14 0.14 89 1012.1
20260509141552 72 174 1.0 3.0 0.08 0.14 0.14 90 1011.8
20260509140056 72 175 2.0 4.0 0.09 0.14 0.14 90 1011.8
20260509134553 73 176 2.0 6.0 0.13 0.13 0.13 90 1011.8
20260509133057 73 84 0.0 3.0 0.10 0.10 0.10 90 1011.4
20260509131540 73 81 0.0 3.0 0.06 0.06 0.06 90 1011.1
20260509130034 73 81 1.0 3.0 0.05 0.05 0.05 89 1011.4
20260509124530 73 81 1.0 4.0 0.00 0.00 0.00 89 1011.7
20260509123026 73 81 0.0 4.0 0.00 0.00 0.00 89 1011.7
20260509121523 73 81 0.0 3.0 0.00 0.00 0.00 89 1011.2
20260509120020 73 80 2.0 4.0 0.00 0.00 0.00 89 1010.8
20260509114519 73 91 0.0 3.0 0.00 0.00 0.00 89 1010.6
20260509113019 73 91 2.0 4.0 0.00 0.00 0.00 89 1010.7
20260509111517 73 90 0.0 4.0 0.00 0.00 0.00 89 1010.5
20260509110016 73 90 0.0 2.0 0.00 0.00 0.00 89 1010.5